GLOBALSTAR M006 [-]

Last updated on Fri Dec 29 2023 00:02:56 GMT+0000 (Coordinated Universal Time)

1 25307U 98023B 23361.72331510 -.00000099 00000+0 -47153-3 0 9998 2 25307 51.9931 114.6970 0003652 206.1033 303.5536 11.58157760154552

Satellite not in orbit